Theta_e
332 336 334 332 332 333 332 327 323 323 323 324 326 326 324 322 323 323 324 325 327 330 330 330 330 328 327 326 329 331 330 328 323 322 325 326 327 325 326 326 328 329 329 329 329 328 326 325 325 324 324 323 325 329 330 329 329 328 325 319 309 309
332 336 337 335 334 333 333 328 324 326 327 327 329 330 328 326 325 326 326 327 328 330 329 330 331 328 329 329 330 330 328 325 322 321 322 323 325 325 326 326 328 330 331 331 330 328 328 326 325 326 326 326 329 331 330 330 330 330 330 325 312 307
331 336 337 337 335 333 334 331 325 327 329 329 332 333 332 331 330 330 330 330 330 331 331 331 332 330 330 331 329 328 327 324 323 322 320 318 323 327 328 327 328 329 331 331 330 330 329 327 327 326 326 329 331 331 330 330 330 329 330 328 318 311
332 335 338 337 335 334 334 333 329 329 330 330 333 334 334 335 335 334 333 333 331 331 332 332 332 331 331 331 328 327 326 326 324 321 318 317 320 326 329 329 329 329 331 331 331 332 333 330 328 327 328 330 331 330 331 330 329 330 329 330 326 322
335 335 338 337 336 335 334 333 332 332 333 333 333 333 334 335 336 336 334 333 332 332 332 332 332 331 332 331 329 328 326 325 323 320 319 318 317 321 327 329 330 330 331 331 331 333 335 333 331 329 330 330 329 329 331 330 330 330 329 329 328 327
337 336 339 338 337 335 334 334 334 335 336 335 334 333 334 333 334 336 334 333 333 333 333 333 332 334 333 330 329 330 328 325 321 320 320 320 318 318 323 327 330 331 331 331 331 333 335 335 332 331 330 329 329 330 331 330 330 330 329 326 325 328
338 338 339 339 337 335 334 335 335 335 337 337 336 335 334 333 335 335 333 333 333 333 333 334 334 335 333 329 329 329 328 324 320 320 320 320 319 318 323 328 329 327 328 330 332 334 335 334 332 331 331 329 329 330 331 331 330 330 328 324 322 326
340 339 339 338 337 335 333 335 334 333 336 337 336 335 334 334 335 334 332 332 333 333 333 335 335 332 329 327 328 326 324 322 319 319 319 320 322 323 327 329 325 322 325 330 332 334 335 333 332 331 331 330 330 331 331 330 329 329 330 328 326 325
339 338 338 337 338 336 333 334 333 333 336 335 333 333 334 334 334 334 334 334 334 334 334 334 334 330 327 326 326 323 321 320 319 319 319 322 325 324 325 327 325 325 328 331 333 333 334 333 332 332 331 331 331 331 330 329 328 330 331 332 329 324
336 336 337 337 337 336 333 333 333 332 333 332 331 332 333 332 331 331 333 333 333 332 333 333 331 328 326 325 323 321 321 320 320 320 320 321 323 322 323 326 328 329 329 330 332 333 333 333 332 332 332 332 332 331 331 330 329 331 331 331 329 325
334 334 335 336 336 336 334 334 334 331 330 331 332 332 332 330 328 329 330 331 330 330 330 330 329 328 327 324 323 321 322 323 324 325 324 322 322 323 325 329 330 330 330 330 332 333 333 332 332 331 332 332 331 330 330 330 329 330 331 331 331 329
335 334 333 334 335 336 335 334 334 331 331 332 332 332 331 328 327 328 329 329 330 329 329 328 328 329 327 325 326 326 325 327 328 329 328 325 324 323 325 328 329 329 329 331 332 332 332 331 331 331 331 332 331 330 330 330 330 330 331 331 331 330
335 334 332 334 336 336 335 335 334 331 330 331 331 332 331 328 327 328 329 329 329 328 327 327 328 328 328 327 328 328 328 328 329 329 329 327 326 324 325 326 325 325 328 331 332 332 332 331 331 331 332 332 330 329 330 330 331 331 331 331 331 330
336 334 333 335 336 335 335 334 333 331 330 330 331 331 329 328 328 328 329 329 329 327 325 326 327 328 329 329 328 328 328 329 328 328 328 328 329 327 327 328 327 328 329 331 332 331 331 331 332 332 331 330 329 328 330 330 331 331 331 331 330 330
337 334 332 335 336 335 335 334 333 331 330 329 329 331 329 328 328 328 329 329 328 327 325 326 327 328 328 329 328 328 329 328 327 327 327 329 330 330 330 330 331 331 332 332 332 331 331 332 332 331 330 329 329 329 329 329 329 330 330 330 330 330
337 334 332 334 336 335 334 334 333 331 330 328 328 330 329 328 328 328 329 329 328 327 325 325 327 326 326 328 329 329 328 326 326 327 328 329 330 331 331 331 332 332 332 332 331 331 332 332 330 328 329 328 328 329 329 329 330 330 330 330 330 329
336 334 333 334 334 334 335 334 332 330 329 329 328 329 329 328 328 329 330 329 328 327 325 326 327 324 324 328 330 328 326 325 326 328 328 328 330 332 331 330 331 332 332 332 332 332 332 330 328 328 329 329 328 329 329 329 330 330 329 330 329 329
335 333 334 335 333 333 334 333 331 330 329 329 328 328 328 328 329 330 330 329 328 326 325 326 326 324 326 329 329 326 325 324 325 327 328 328 330 333 332 330 330 331 332 332 332 332 331 329 328 329 330 328 328 329 329 330 330 329 330 330 329 329
336 333 334 335 334 333 334 332 330 329 329 329 328 329 330 330 329 330 330 328 328 327 325 325 325 325 328 330 328 325 325 325 325 326 327 329 331 331 330 329 329 329 330 331 332 330 329 329 328 329 330 329 328 329 329 329 330 330 330 330 329 329
335 335 335 335 334 334 334 331 330 330 329 329 329 330 332 332 330 330 330 329 329 328 327 325 323 325 328 329 328 327 326 325 325 326 328 329 331 329 327 328 329 329 329 330 330 328 327 329 330 330 330 329 328 329 329 329 329 330 329 329 328 328
335 334 335 334 334 334 333 331 330 330 329 330 330 331 332 332 331 331 331 329 327 328 327 325 325 327 328 328 328 327 326 326 325 327 328 329 331 330 327 328 328 328 328 329 329 329 329 329 329 329 329 329 328 327 327 328 329 329 328 329 329 328
335 334 334 334 333 333 332 331 331 330 329 331 331 332 331 330 332 331 327 327 326 327 329 327 327 328 327 326 326 327 326 326 326 326 328 328 329 329 327 327 328 328 329 329 329 330 329 329 329 329 328 328 328 327 327 327 329 329 329 328 327 325
336 335 334 333 333 333 332 331 332 331 331 332 332 332 331 331 332 330 326 326 326 328 330 329 328 327 326 326 326 327 327 327 327 326 327 328 327 327 327 327 328 329 330 330 331 330 328 328 329 329 329 328 327 327 327 328 328 327 327 326 325 324
335 335 335 334 333 333 332 331 332 331 331 333 332 332 332 331 332 331 328 326 326 328 330 329 328 328 329 328 327 327 328 328 327 326 327 328 327 327 327 328 329 330 330 330 331 330 328 328 328 328 328 327 327 327 327 327 326 325 325 325 325 325
334 334 334 334 333 333 332 331 331 331 331 332 330 330 331 328 329 332 331 328 328 329 329 328 328 330 331 330 328 329 329 329 329 327 327 329 329 327 328 329 330 330 330 330 331 331 330 329 328 327 326 326 327 327 327 327 326 326 325 325 325 325
334 333 332 334 333 333 332 331 331 332 331 330 328 328 329 328 328 332 332 329 329 329 328 328 328 330 330 328 328 329 330 331 331 328 327 329 330 329 329 331 331 330 330 331 331 331 330 329 328 327 326 327 327 325 326 326 326 327 326 325 325 325
335 332 332 333 333 332 332 332 331 331 330 330 330 329 329 329 330 331 330 328 328 328 328 328 328 328 327 327 328 328 329 331 331 329 328 328 330 330 330 331 331 331 331 331 330 329 328 329 328 327 327 327 327 325 325 326 327 327 326 325 325 325
333 332 333 334 333 333 333 331 330 330 331 331 331 328 328 329 329 329 328 328 328 327 328 327 327 327 326 327 328 327 328 330 330 330 328 327 329 330 331 331 331 331 331 331 330 327 327 328 328 327 327 326 327 328 327 327 327 326 326 325 324 324
332 332 333 334 333 333 332 330 329 330 331 331 331 328 327 328 327 328 328 328 328 327 327 327 327 327 327 328 327 327 328 329 329 329 328 328 329 329 331 331 330 330 331 331 328 326 326 328 328 327 327 326 328 328 327 328 327 325 326 325 325 324
333 332 333 333 333 333 331 329 329 329 328 330 330 327 326 327 327 328 328 328 327 326 326 327 327 327 327 328 328 327 327 327 328 327 327 329 328 327 328 328 328 328 328 328 327 326 326 327 328 328 327 326 328 328 327 328 327 326 326 326 325 323
333 332 332 332 332 332 329 328 328 327 327 329 329 326 325 326 327 327 328 327 325 324 325 324 325 324 325 326 328 328 327 326 326 326 327 329 327 325 325 325 327 328 327 326 326 327 327 327 329 329 327 326 327 328 326 327 327 327 326 326 325 323
332 332 331 330 331 330 329 327 327 327 328 328 325 323 323 324 325 327 328 326 323 322 322 321 320 320 321 322 324 326 326 326 325 325 327 329 327 325 325 324 326 327 327 327 326 327 327 327 329 330 329 327 327 327 325 325 325 326 326 326 325 324
332 331 329 328 329 330 329 327 327 328 328 326 323 322 323 322 323 325 325 324 323 324 323 322 320 319 319 319 320 322 324 326 326 324 325 326 327 327 326 325 325 327 327 327 327 326 327 327 328 329 328 326 326 326 325 324 324 325 326 325 325 324
331 330 328 327 329 330 329 328 328 328 326 324 322 322 324 323 322 324 324 322 325 326 325 324 323 321 319 318 318 319 321 324 325 325 324 324 327 328 326 325 326 326 326 326 326 326 326 326 326 327 325 323 325 326 324 324 325 326 326 325 325 324
330 329 327 327 329 330 329 328 327 326 324 323 322 323 325 324 322 324 325 324 325 326 326 326 324 322 319 318 318 318 319 320 321 324 324 324 325 326 325 325 325 325 326 325 325 325 325 324 324 325 325 322 323 325 324 324 325 326 325 325 325 323
330 329 327 328 328 329 328 327 326 324 322 322 322 324 325 323 319 320 323 325 325 325 326 326 324 321 319 319 319 318 317 318 318 321 324 324 324 325 324 324 324 325 325 324 324 325 324 324 323 324 326 324 323 324 324 324 325 326 325 325 325 323
331 330 330 329 327 327 328 326 324 322 321 321 322 323 321 318 317 317 320 322 322 322 322 322 321 319 319 319 319 318 317 318 317 318 320 321 323 324 324 323 324 324 324 324 325 325 325 324 324 325 328 327 325 324 324 324 326 326 324 324 324 322
Wind_Speed
20 18 16 16 15 14 12 11 11 13 14 15 17 17 18 19 19 19 19 20 19 18 18 17 17 15 14 14 14 13 10 9 11 13 13 14 14 12 11 10 10 9 9 10 10 10 9 9 10 13 13 12 12 10 9 11 11 11 10 8 9 9
22 18 17 16 16 16 14 13 13 14 14 16 17 17 18 18 19 20 20 21 21 21 21 19 19 18 16 15 13 12 11 9 10 11 12 13 13 13 11 10 9 8 8 9 9 9 9 8 9 11 12 11 10 7 7 10 10 10 9 6 8 9
23 20 17 17 16 16 14 14 13 14 15 17 18 18 19 19 19 20 20 21 21 22 21 18 18 19 17 15 13 12 11 9 8 9 11 12 13 13 12 10 9 7 7 8 7 6 7 7 7 9 9 9 8 7 7 10 9 8 7 6 8 9
23 20 18 17 16 16 15 14 14 15 17 18 19 19 18 18 18 19 20 20 21 20 20 18 17 17 16 14 13 12 10 9 7 7 8 10 11 13 12 11 10 8 7 7 6 6 7 6 6 6 7 7 7 8 9 9 9 7 7 7 8 9
21 20 18 17 17 17 17 16 16 17 17 18 19 18 18 18 19 19 20 20 20 19 18 19 18 16 15 14 12 11 9 7 6 5 6 7 9 11 12 12 10 9 9 7 6 7 8 7 7 6 7 8 7 9 10 9 9 7 7 6 7 11
20 20 18 17 18 18 18 17 17 18 16 16 16 16 17 19 20 19 20 20 20 19 17 17 16 15 14 14 12 10 8 8 7 7 7 7 7 10 12 11 10 10 10 8 7 8 9 8 8 8 8 8 7 9 9 9 7 7 7 5 8 12
20 21 18 18 18 19 19 18 18 18 17 14 14 14 16 18 19 18 19 20 19 18 16 14 14 14 13 13 12 10 9 10 9 8 8 7 7 9 10 10 11 11 10 9 8 8 8 8 9 9 8 7 8 9 8 8 7 7 7 6 8 10
19 21 21 20 19 20 22 20 19 18 16 16 15 14 15 16 18 17 17 19 18 15 14 14 12 12 12 12 11 11 11 11 10 9 9 8 7 9 10 10 11 11 9 9 8 9 8 8 9 9 8 8 8 9 8 8 8 8 7 6 7 7
19 21 22 21 20 21 23 21 20 18 16 17 17 15 15 15 15 15 15 17 17 14 14 13 11 10 10 11 11 12 12 11 10 9 9 8 8 9 9 10 9 9 9 9 9 9 9 9 9 9 8 8 8 8 9 9 9 8 7 7 6 4
20 21 22 22 22 23 24 22 21 20 18 18 17 16 16 14 14 13 13 15 17 15 13 12 11 10 9 10 11 12 12 11 10 9 9 9 8 8 8 8 8 9 10 9 9 9 9 10 9 8 8 8 8 9 9 9 9 8 8 7 6 4
21 21 21 23 24 24 23 22 21 20 19 18 18 17 15 13 13 12 12 13 15 14 12 12 11 10 9 10 10 11 11 10 10 9 8 8 8 7 7 8 9 9 10 9 9 9 10 10 9 8 8 8 8 9 9 9 9 9 8 8 7 6
20 20 20 22 24 24 22 21 21 19 18 17 17 15 14 13 13 13 12 11 13 12 11 11 10 9 9 9 10 9 10 9 9 9 7 7 7 7 8 9 10 11 11 10 10 10 10 10 9 8 8 8 9 9 9 9 8 8 8 8 7 7
20 21 20 22 24 22 20 21 21 19 17 16 15 13 12 14 15 14 14 13 12 11 9 9 9 9 8 8 9 8 9 8 8 8 8 7 7 7 8 8 8 10 11 11 10 11 10 10 10 9 8 8 9 9 9 9 8 7 7 7 7 7
20 21 21 21 21 19 18 19 19 17 16 15 14 12 12 15 18 16 16 15 13 12 11 9 9 9 9 8 8 7 7 7 8 8 7 7 7 7 8 8 8 8 9 10 10 11 11 10 10 9 9 9 8 9 9 9 8 8 7 7 7 8
19 19 20 20 19 18 18 18 17 16 16 15 15 13 13 18 19 18 16 16 15 14 13 12 10 10 9 9 8 7 7 7 7 7 7 7 7 8 8 8 8 8 9 9 10 11 11 11 11 11 10 9 9 10 10 10 9 8 7 7 7 7
19 19 20 20 19 18 18 19 18 16 16 15 15 13 13 18 20 18 17 17 17 15 15 14 12 10 10 10 9 8 8 7 6 8 8 7 7 7 8 9 9 9 9 9 11 11 11 12 13 12 11 10 11 11 11 10 9 8 8 8 6 6
19 20 21 21 19 19 19 19 18 16 15 15 15 14 14 19 22 19 17 18 17 17 15 14 12 12 12 12 11 10 9 7 7 9 8 8 8 7 9 10 10 10 9 9 11 12 12 13 13 12 11 12 12 12 11 11 10 9 9 8 6 6
19 17 19 20 18 19 20 18 17 15 15 14 14 14 14 19 21 17 17 18 17 16 14 13 13 13 14 14 13 11 10 9 8 9 9 8 8 8 9 10 11 11 10 10 11 12 13 13 12 12 12 13 13 12 11 11 10 9 8 7 7 6
17 15 18 18 16 19 20 18 16 15 15 15 15 14 13 15 18 17 16 17 17 15 13 13 13 13 13 14 13 11 11 10 9 9 9 9 8 9 10 10 11 12 11 11 11 13 13 12 12 11 12 13 12 12 11 11 10 9 8 7 7 6
17 16 17 17 16 18 18 17 16 16 16 15 15 15 12 12 14 14 12 12 13 12 12 12 12 12 11 12 12 11 12 11 9 9 9 8 9 10 11 11 11 12 13 12 11 13 13 13 13 12 13 13 12 12 12 11 10 9 9 8 7 6
17 18 17 15 17 19 17 16 16 16 16 14 15 14 12 12 12 11 10 10 10 11 12 13 12 12 10 10 11 10 11 11 10 9 9 9 9 10 12 12 12 12 13 13 12 14 15 15 15 15 14 13 12 12 12 12 9 8 8 8 8 7
14 16 15 13 17 20 18 16 15 16 15 13 14 13 13 14 12 11 12 11 10 10 11 12 10 10 10 10 11 10 11 11 10 10 10 11 10 11 12 12 12 13 13 13 13 15 16 16 16 16 15 15 14 13 12 11 9 8 8 8 7 6
13 14 13 14 17 18 17 15 14 15 14 12 12 12 12 13 12 12 13 10 9 9 9 10 10 10 10 10 11 11 11 11 11 11 10 11 11 12 12 12 12 12 13 13 13 15 16 16 17 17 16 14 14 15 13 10 9 9 8 8 7 6
13 14 14 15 17 17 16 15 14 15 14 12 12 13 12 12 12 11 11 11 10 10 10 10 11 10 9 10 11 12 12 12 12 12 11 11 11 12 12 12 12 12 14 15 15 16 17 17 17 17 16 14 13 14 11 10 11 9 8 8 7 7
14 15 16 15 16 18 17 17 16 15 15 14 14 16 15 14 13 10 10 11 10 10 11 11 11 9 8 10 11 12 12 12 12 12 12 11 10 12 12 11 12 13 14 14 14 15 16 17 17 16 16 14 12 11 10 13 13 10 8 8 8 8
14 16 17 15 16 19 18 18 17 15 17 17 16 17 16 15 14 11 10 10 10 10 10 10 9 9 9 10 11 11 11 11 11 12 13 11 11 11 11 11 11 12 12 13 15 15 16 17 19 17 16 15 11 10 14 17 15 11 9 9 9 8
16 17 17 15 15 19 18 17 17 16 16 16 15 15 15 13 13 11 10 10 9 9 9 8 8 8 8 9 10 10 11 11 11 12 13 13 12 11 11 11 11 11 12 12 13 15 16 17 20 19 17 16 11 10 16 17 14 15 13 11 10 8
19 18 17 15 17 19 17 17 19 17 16 15 14 14 13 13 13 12 10 9 8 7 7 7 7 7 8 8 9 9 10 11 11 12 13 13 12 12 11 11 13 13 12 11 11 14 16 17 20 19 17 15 9 9 15 13 10 13 14 14 12 9
18 19 17 16 18 19 18 18 19 18 16 14 13 13 12 12 11 11 9 9 8 7 7 7 7 7 7 7 8 9 10 11 12 12 12 12 12 13 13 12 15 15 13 13 12 12 15 17 18 17 17 15 8 9 13 10 8 10 11 13 13 11
16 18 19 19 20 20 20 20 20 19 17 14 13 12 11 10 10 10 10 9 8 7 7 7 7 7 7 6 7 8 10 11 12 12 11 11 13 15 15 14 15 16 15 14 14 12 14 16 16 15 16 13 9 10 13 11 9 9 9 10 12 14
16 19 21 22 22 21 20 20 21 20 17 15 14 13 12 12 11 11 11 11 10 8 7 7 7 6 7 7 7 8 9 10 11 12 11 12 13 14 15 15 15 16 16 16 15 14 15 17 15 12 12 11 10 12 14 14 12 10 10 10 11 14
19 22 24 24 23 21 20 21 21 19 16 15 14 14 14 13 13 12 10 11 11 10 9 8 8 7 7 7 7 7 8 9 10 11 12 12 13 14 15 15 15 16 17 16 15 15 16 16 14 10 10 11 11 12 13 14 13 11 10 10 11 14
23 25 25 25 23 20 20 20 20 18 17 16 15 14 14 13 12 11 10 10 11 10 10 9 9 9 9 8 8 8 8 8 9 10 12 12 12 13 14 15 16 16 17 17 16 15 15 15 14 11 11 12 12 12 11 11 10 9 10 10 11 12
25 26 25 25 22 20 20 19 19 18 17 16 15 14 14 13 12 12 11 10 10 9 9 9 9 9 9 10 9 9 9 9 9 9 11 12 12 12 13 14 15 16 16 16 15 14 14 14 13 12 12 12 13 13 13 11 9 8 9 10 10 12
27 27 26 25 23 20 19 19 18 18 17 15 15 15 13 13 13 12 11 10 9 9 8 8 8 8 8 9 10 10 10 10 9 9 10 11 11 11 12 12 14 15 15 14 14 13 13 13 12 11 11 11 12 13 14 12 9 8 9 9 10 12
25 26 26 25 23 20 19 19 19 18 16 15 15 15 14 14 14 13 12 10 10 9 8 8 8 7 7 8 8 9 10 10 10 10 10 10 10 10 11 12 12 13 13 13 13 12 12 12 12 11 10 10 11 12 14 13 10 9 11 11 10 11
22 23 23 22 22 21 19 20 20 19 17 16 16 15 16 16 15 14 12 11 10 9 8 7 6 7 7 7 7 8 9 10 11 11 11 11 10 9 9 10 11 12 12 12 11 11 11 11 11 10 9 10 10 10 12 13 10 10 13 13 12 12
Wind_Direction
180 182 184 185 184 175 167 163 165 167 167 166 168 170 170 170 169 166 166 163 160 160 163 160 157 159 159 160 158 162 187 210 203 191 187 192 192 189 184 173 166 154 140 134 130 130 129 125 119 113 111 107 95 86 91 91 88 89 93 112 127 120
184 184 186 189 187 179 171 166 169 170 168 169 171 171 168 167 168 166 164 164 165 165 165 163 159 158 157 158 161 170 190 205 202 195 191 196 197 196 196 189 180 168 151 138 133 132 132 132 126 120 117 104 89 94 102 92 88 90 91 109 133 130
190 186 187 191 189 182 176 172 174 174 174 177 177 175 172 169 171 167 165 170 171 168 165 161 156 155 156 157 162 173 183 186 188 192 196 202 201 201 202 199 191 185 168 143 136 139 140 141 132 127 119 106 107 116 105 98 97 96 97 101 119 125
194 188 188 192 189 187 183 177 178 182 184 184 181 181 177 173 175 172 172 174 171 168 162 158 154 153 153 150 157 170 175 175 178 188 199 205 205 206 207 207 201 195 190 164 152 155 155 158 145 132 116 113 121 116 105 105 106 108 107 100 112 115
196 189 190 191 187 189 187 181 182 187 189 187 185 185 184 182 182 178 177 175 170 169 161 157 155 151 150 148 153 161 166 173 176 176 188 201 206 210 209 210 209 202 203 186 166 163 164 167 154 141 129 129 124 112 111 113 117 121 115 108 114 108
195 191 189 190 190 192 190 185 185 187 185 190 191 189 191 192 191 184 177 174 174 171 160 154 148 143 147 150 155 154 162 175 178 176 181 194 199 208 209 205 202 202 206 190 177 176 171 170 157 145 138 135 122 113 116 119 122 123 110 96 102 107
196 193 190 193 195 196 192 187 190 190 184 191 195 193 198 198 195 190 180 173 174 171 155 146 143 146 150 152 158 161 169 175 176 176 178 187 190 195 193 188 197 209 211 194 187 185 174 172 158 147 144 138 124 117 119 120 119 116 104 75 79 101
193 194 197 200 196 198 197 192 196 195 187 194 196 196 203 202 195 187 177 169 168 167 152 145 148 153 155 154 160 166 172 175 175 176 179 179 177 178 174 180 202 210 203 190 188 184 175 172 158 149 146 138 129 125 125 122 116 113 112 90 77 93
197 200 204 205 198 199 202 198 198 195 192 200 200 200 203 202 196 178 169 167 164 162 152 147 150 153 159 158 158 164 168 172 173 174 178 176 174 176 176 178 186 186 183 182 182 178 174 170 158 151 146 137 132 131 128 121 114 111 118 115 97 99
205 205 206 206 204 205 205 202 202 199 197 200 198 200 202 200 201 187 177 174 164 157 150 148 152 154 160 159 158 160 158 163 167 168 175 180 180 175 171 170 167 172 178 177 176 172 170 167 159 152 145 139 137 136 131 123 119 117 117 119 115 109
208 209 212 211 209 210 207 204 206 204 200 198 194 198 202 200 203 200 189 174 157 151 148 149 154 155 161 160 156 152 150 157 160 160 166 172 175 165 157 160 164 172 175 173 170 166 165 162 159 155 147 144 145 141 134 130 129 126 121 121 121 115
207 210 216 215 213 212 209 207 208 206 201 198 196 199 202 199 200 193 179 164 148 145 148 152 156 156 163 163 153 150 152 157 157 154 157 159 161 156 155 162 168 171 171 168 163 161 161 161 162 159 153 153 152 146 142 136 130 126 124 124 124 121
205 209 212 212 212 212 208 209 207 202 201 201 199 202 202 200 198 187 171 161 149 152 161 163 165 162 166 162 154 157 157 159 165 161 158 157 155 154 157 162 167 168 166 162 160 160 160 162 163 159 160 164 161 157 147 136 130 126 126 127 128 130
205 208 209 209 209 207 204 206 205 200 202 205 203 199 199 203 198 186 172 162 156 164 174 175 176 172 170 166 157 160 167 173 177 170 162 160 162 161 158 157 158 161 159 158 161 163 164 166 165 165 173 173 172 171 157 145 140 135 135 137 135 138
210 211 209 213 212 206 204 206 206 205 206 211 208 198 198 203 198 188 174 161 161 169 176 179 185 182 176 173 166 170 188 193 185 176 172 173 176 169 162 159 160 163 159 157 162 166 168 170 173 180 183 180 179 177 169 159 146 140 143 142 138 142
212 212 208 212 214 210 209 210 209 207 210 213 209 204 207 204 196 189 176 164 165 172 178 183 187 190 185 179 178 186 198 201 192 182 180 183 180 172 172 173 170 170 165 162 165 167 173 181 189 194 190 184 181 176 172 159 147 150 150 144 141 136
213 212 208 210 215 217 213 210 207 206 212 213 209 212 214 204 195 188 176 169 171 175 178 182 187 193 193 189 188 192 198 198 191 186 185 187 181 174 181 184 181 177 170 169 171 171 181 190 196 196 193 188 179 173 167 154 148 154 146 139 140 131
216 213 209 209 213 218 212 205 203 204 211 214 214 215 205 196 193 186 175 171 174 176 175 178 189 196 194 192 190 191 199 196 189 188 188 191 186 179 183 187 190 187 176 172 175 180 186 190 192 192 191 184 172 164 158 149 149 149 139 139 141 135
217 209 211 211 206 209 206 203 204 204 209 216 215 205 190 189 190 184 179 173 172 174 175 181 195 201 192 189 192 196 199 192 188 190 186 189 193 191 194 192 193 197 189 178 179 185 187 184 183 182 176 170 163 157 151 147 147 143 138 142 142 133
214 204 209 214 202 199 201 203 203 203 206 208 200 188 182 192 187 179 178 177 175 174 178 187 199 205 194 189 195 199 198 192 190 189 183 188 195 197 201 197 196 202 200 190 179 175 180 176 167 160 155 154 158 157 150 143 142 145 146 143 138 131
210 203 205 216 207 194 195 201 202 205 205 192 183 179 182 189 181 174 175 184 193 188 189 197 201 203 197 193 200 201 200 198 194 191 186 188 191 195 199 198 200 202 200 196 179 165 172 172 162 157 151 140 141 148 146 142 141 148 150 144 141 143
207 205 200 207 208 197 192 194 198 204 198 181 176 177 185 187 180 181 184 190 203 200 198 201 199 198 198 200 204 204 204 203 199 198 195 191 192 196 198 198 199 197 192 190 182 172 173 171 163 158 148 135 133 135 135 137 138 139 142 142 144 149
199 202 197 196 199 196 192 190 194 199 185 173 177 175 181 188 183 191 199 203 211 209 204 204 205 207 209 212 212 211 209 204 201 202 202 199 199 199 198 197 194 190 184 180 180 179 179 177 168 156 147 142 141 135 129 133 134 137 142 138 139 141
191 195 201 200 192 188 192 192 194 195 180 168 178 176 177 186 186 194 206 209 211 211 207 208 212 213 214 219 219 216 211 203 203 205 202 200 202 200 198 195 190 187 185 180 177 180 182 182 176 165 155 150 146 140 139 145 137 132 139 136 135 138
191 199 206 204 190 183 189 192 191 190 180 175 183 185 187 193 192 192 202 206 207 209 212 213 214 208 207 216 218 214 208 203 204 206 200 196 198 200 197 192 190 190 189 183 178 180 183 181 180 175 162 155 155 153 153 152 137 124 133 135 134 139
199 207 206 202 189 181 184 187 184 183 181 180 185 189 192 197 194 190 199 204 206 209 213 216 214 209 210 214 212 207 200 195 201 204 199 193 193 196 193 191 194 193 191 189 184 185 186 182 180 176 169 168 170 169 166 159 147 136 134 133 134 137
204 203 201 202 188 179 181 180 177 177 180 182 185 187 191 197 197 200 206 206 208 211 212 215 213 213 220 215 209 204 195 190 196 201 199 195 193 192 190 192 196 194 195 198 194 191 191 188 186 183 179 178 171 171 173 166 158 151 144 140 142 142
201 195 197 201 184 177 180 178 176 176 179 182 186 190 193 199 200 203 206 202 203 209 206 205 203 205 212 209 206 205 200 196 195 197 200 201 197 191 188 193 196 192 193 200 197 194 194 194 194 187 180 179 170 172 176 172 169 161 151 148 144 141
192 190 197 199 181 176 179 180 179 177 179 183 185 190 192 193 191 188 189 188 189 195 193 187 187 190 194 199 204 203 201 197 196 198 201 201 199 193 188 193 198 193 191 195 194 195 198 197 197 190 183 180 173 172 176 176 178 166 153 151 147 144
184 186 194 194 181 176 178 181 181 180 183 184 181 185 186 181 179 176 178 180 179 182 183 179 180 180 180 188 198 200 199 196 197 202 201 198 198 196 194 195 198 198 197 195 191 195 202 201 201 200 192 180 168 174 178 179 179 170 159 154 152 151
179 182 183 182 177 176 179 181 182 182 185 185 183 183 178 174 176 176 179 176 171 174 177 179 182 182 183 183 186 193 196 196 200 201 195 193 195 197 200 200 197 200 203 198 192 195 201 204 207 212 207 190 177 182 184 182 178 171 164 155 151 153
176 178 177 175 172 175 182 182 182 184 186 186 187 184 179 179 179 175 177 172 167 172 180 184 186 190 193 187 185 189 190 194 198 195 191 194 197 199 201 203 201 203 205 204 201 200 201 205 208 214 219 209 198 195 191 189 184 173 163 156 154 155
176 176 176 174 171 175 181 180 180 183 186 186 185 183 184 184 177 173 177 174 170 174 180 184 186 187 191 189 187 189 189 192 194 194 196 196 197 200 201 203 204 203 205 206 207 208 206 209 212 213 215 215 213 207 196 192 191 176 158 153 156 158
177 177 178 175 172 176 179 178 179 181 183 182 180 180 182 182 177 176 179 175 169 171 174 176 179 184 186 186 187 188 190 193 195 196 198 196 193 196 201 203 203 203 204 205 206 209 208 210 216 215 210 212 216 214 197 182 177 170 160 158 162 161
179 179 180 177 175 178 178 177 179 178 179 181 179 179 180 182 181 176 171 166 162 162 163 167 178 186 186 184 186 188 190 192 196 197 195 196 195 195 200 202 202 201 201 202 204 208 208 209 213 211 207 205 208 208 196 177 165 168 169 167 166 163
179 179 180 178 177 178 176 176 176 176 178 179 177 177 181 184 180 172 164 159 160 161 163 171 184 191 190 188 188 188 188 189 194 195 193 195 198 201 203 200 198 196 198 201 202 204 206 206 205 201 200 196 191 190 185 172 165 175 175 169 166 163
177 177 180 179 177 176 175 176 174 174 175 175 176 180 183 180 173 170 164 159 163 166 169 182 192 194 194 195 193 186 185 189 194 196 194 194 197 203 206 203 197 192 195 198 197 201 204 201 197 194 197 196 182 177 180 169 164 178 176 168 165 162